Location: Unspecified
(0.0000°N, 0.0000°E)
Time: 15:15:42
(UTC+00:00)

Courier 1B - All Passes

Search period start: 12 April 2021 00:00
Search period end: 22 April 2021 00:00
Orbit: 963 x 1209 km, 28.3° (Epoch: 11 April)

Date Brightness Start Highest point End Pass type
(mag) Time Alt. Az. Time Alt. Az. Time Alt. Az.
12 Apr - 01:30:19 10° W 01:37:16 35° SSW 01:44:15 10° SE night (unlit)
12 Apr - 03:30:02 10° SW 03:32:38 12° SSW 03:35:12 10° S visible
12 Apr - 09:17:14 10° SSW 09:21:54 19° SSE 09:26:24 10° ESE daylight
12 Apr - 11:09:42 10° SW 11:16:21 64° SSE 11:22:46 10° ENE daylight
12 Apr - 13:04:34 10° W 13:10:23 34° NNW 13:16:10 10° NE daylight
12 Apr - 20:49:16 10° NNW 20:54:01 18° NNE 20:58:54 10° ENE visible
12 Apr - 22:41:20 10° NW 22:48:42 58° NNE 22:56:23 10° ESE night (unlit)
13 Apr - 00:35:49 10° W 00:43:10 46° SSW 00:50:40 10° SE night (unlit)
13 Apr - 02:33:51 10° WSW 02:38:16 16° SSW 02:42:41 10° SSE visible
13 Apr - 08:24:12 10° S 08:27:47 14° SSE 08:31:15 10° SE daylight
13 Apr - 10:16:02 10° SW 10:22:34 46° SSE 10:28:47 10° E daylight
13 Apr - 12:10:16 10° WSW 12:16:36 48° NNW 12:22:48 10° NE daylight
13 Apr - 14:08:03 10° NW 14:11:05 13° NNW 14:14:08 10° N daylight
13 Apr - 19:56:46 10° N 19:59:50 13° NNE 20:02:58 10° NE visible
13 Apr - 21:47:50 10° NW 21:54:43 42° NNE 22:01:55 10° E visible
13 Apr - 23:41:36 10° WNW 23:49:07 62° SSW 23:56:55 10° SE night (unlit)
14 Apr - 01:38:24 10° WSW 01:43:59 21° SSW 01:49:36 10° SSE night (unlit)
14 Apr - 07:31:47 10° S 07:33:32 11° SSE 07:35:18 10° SSE daylight
14 Apr - 09:22:28 10° SW 09:28:41 33° SSE 09:34:35 10° E daylight
14 Apr - 11:16:08 10° WSW 11:22:51 69° NNW 11:29:19 10° NE daylight
14 Apr - 13:12:41 10° WNW 13:17:06 19° NNW 13:21:29 10° NNE daylight
14 Apr - 20:54:31 10° NNW 21:00:43 30° NNE 21:07:13 10° E visible
14 Apr - 22:47:37 10° WNW 22:55:07 84° SSW 23:02:59 10° ESE night (unlit)
15 Apr - 00:43:25 10° W 00:49:47 27° SSW 00:56:16 10° SSE night (unlit)
15 Apr - 08:29:00 10° SSW 08:34:43 25° SSE 08:40:09 10° E daylight
15 Apr - 10:22:08 10° WSW 10:29:06 85° SSE 10:35:41 10° ENE daylight
15 Apr - 12:17:47 10° W 12:23:12 26° NNW 12:28:30 10° NNE daylight
15 Apr - 20:01:26 10° NNW 20:06:42 22° NNE 20:12:11 10° ENE visible
15 Apr - 21:53:52 10° NW 22:01:09 73° NNE 22:08:52 10° ESE visible
15 Apr - 23:48:48 10° W 23:55:39 36° SSW 00:02:45 10° SE night (unlit)
16 Apr - 01:47:50 10° SW 01:51:00 13° SSW 01:54:12 10° S night (unlit)
16 Apr - 07:35:40 10° SSW 07:40:38 19° SSE 07:45:23 10° ESE daylight
16 Apr - 09:28:17 10° SW 09:35:17 61° SSE 09:41:52 10° ENE daylight
16 Apr - 11:23:12 10° W 11:29:22 37° NNW 11:35:19 10° NE daylight
16 Apr - 13:23:13 10° NNW 13:24:03 10° NNW 13:24:53 10° NNW daylight
16 Apr - 19:08:41 10° N 19:12:38 16° NNE 19:16:43 10° ENE visible
16 Apr - 21:00:18 10° NW 21:07:13 53° NNE 21:14:34 10° ESE visible
16 Apr - 22:54:28 10° WNW 23:01:35 48° SSW 23:09:03 10° SE night (unlit)
17 Apr - 00:52:02 10° WSW 00:56:39 17° SSW 01:01:20 10° SSE night (unlit)
17 Apr - 06:42:32 10° S 06:46:26 15° SSE 06:50:13 10° SE daylight
17 Apr - 08:34:32 10° SW 08:41:24 44° SSE 08:47:51 10° E daylight
17 Apr - 10:28:49 10° WSW 10:35:34 53° NNW 10:41:59 10° NE daylight
17 Apr - 12:26:29 10° WNW 12:29:59 15° NNW 12:33:27 10° N daylight
17 Apr - 18:16:48 10° N 18:18:31 11° NNE 18:20:15 10° NE visible
17 Apr - 20:06:56 10° NW 20:13:18 38° NNE 20:20:04 10° E visible
17 Apr - 22:00:25 10° WNW 22:07:35 66° SSW 22:15:14 10° SE visible
17 Apr - 23:56:50 10° WSW 00:02:23 22° SSW 00:08:06 10° SSE night (unlit)
18 Apr - 05:49:50 10° S 05:52:06 11° SSE 05:54:21 10° SE daylight
18 Apr - 07:40:54 10° SW 07:47:27 33° SSE 07:53:37 10° E daylight
18 Apr - 09:34:37 10° WSW 09:41:46 75° NNW 09:48:29 10° NE daylight
18 Apr - 11:31:07 10° WNW 11:36:01 21° NNW 11:40:46 10° NNE daylight
18 Apr - 19:13:45 10° NNW 19:19:23 27° NNE 19:25:17 10° E visible
18 Apr - 21:06:34 10° WNW 21:13:40 88° SSW 21:21:15 10° ESE visible
18 Apr - 23:02:02 10° W 23:08:13 28° SSW 23:14:39 10° SSE night (unlit)
19 Apr - 01:03:38 10° SSW 01:03:50 10° SSW 01:04:02 10° SSW night (unlit)
19 Apr - 06:47:23 10° SSW 06:53:23 25° SSE 06:59:06 10° ESE daylight
19 Apr - 08:40:34 10° WSW 08:47:56 80° SSE 08:54:48 10° ENE daylight
19 Apr - 10:36:12 10° W 10:42:06 29° NNW 10:47:46 10° NNE daylight
19 Apr - 18:20:49 10° NNW 18:25:26 19° NNE 18:30:12 10° ENE visible
19 Apr - 20:12:56 10° NW 20:19:47 68° NNE 20:27:07 10° ESE visible
19 Apr - 22:07:35 10° W 22:14:08 37° SSW 22:21:05 10° SE visible
20 Apr - 00:06:09 10° SW 00:09:25 13° SSW 00:12:43 10° S night (unlit)
20 Apr - 05:54:00 10° SSW 05:59:13 19° SSE 06:04:15 10° ESE daylight
20 Apr - 07:46:40 10° SW 07:54:02 59° SSE 08:00:56 10° ENE daylight
20 Apr - 09:41:34 10° W 09:48:14 41° NNW 09:54:33 10° NE daylight
20 Apr - 11:40:40 10° NW 11:42:54 12° NNW 11:45:05 10° N daylight
20 Apr - 17:28:16 10° N 17:31:25 14° NNE 17:34:36 10° NE daylight
20 Apr - 19:19:27 10° NW 19:25:56 48° NNE 19:32:48 10° ESE visible
20 Apr - 21:13:23 10° WNW 21:20:09 50° SSW 21:27:22 10° SE visible
20 Apr - 23:10:36 10° WSW 23:15:06 17° SSW 23:19:44 10° SSE night (unlit)
21 Apr - 05:00:50 10° SSW 05:04:56 15° SSE 05:08:57 10° SE visible
21 Apr - 06:52:53 10° SW 07:00:04 43° SSE 07:06:51 10° E daylight
21 Apr - 08:47:09 10° WSW 08:54:23 58° NNW 09:01:10 10° NE daylight
21 Apr - 10:44:36 10° WNW 10:48:49 17° NNW 10:52:56 10° NNE daylight
21 Apr - 18:26:11 10° NW 18:32:05 34° NNE 18:38:18 10° E visible
21 Apr - 20:19:25 10° WNW 20:26:14 69° SSW 20:33:31 10° SE visible
21 Apr - 22:15:34 10° WSW 22:20:53 22° SSW 22:26:26 10° SSE night (unlit)
